DW6637 Weather Reports


time (UTC)temp
F
wind
direction
speed
knots
gust
knots
rain 1hr
in
rain 24hr
in
rain mn
in
humidity
%
barometer
mb
20260507073052 58 236 0.0 0.0 0.00 0.00 0.00 83 1015.9
20260507071607 58 237 0.0 0.0 0.00 0.00 0.00 83 1015.9
20260507070048 59 236 0.0 0.0 0.00 0.00 0.00 83 1016.0
20260507064647 59 236 0.0 0.0 0.00 0.00 0.00 82 1016.1
20260507063047 59 236 0.0 0.0 0.00 0.00 0.00 81 1016.2
20260507061546 60 236 0.0 0.0 0.00 0.00 0.00 79 1016.1
20260507060050 60 236 0.0 0.0 0.00 0.00 0.00 79 1016.1
20260507054545 60 236 0.0 0.0 0.00 0.00 0.00 78 1016.1
20260507053110 61 236 0.0 0.0 0.00 0.00 0.00 77 1016.1
20260507051545 61 236 0.0 0.0 0.00 0.00 0.00 77 1016.0
20260507050046 62 236 0.0 0.0 0.00 0.00 0.00 75 1016.0
20260507044542 62 236 0.0 0.0 0.00 0.00 0.00 74 1015.9
20260507043041 63 235 0.0 0.0 0.00 0.00 0.00 73 1015.9
20260507041543 63 235 0.0 0.0 0.00 0.00 0.00 72 1015.8
20260507040040 64 235 0.0 0.0 0.00 0.00 0.00 70 1015.6
20260507034540 64 235 0.0 0.0 0.00 0.00 0.00 68 1015.4
20260507033044 65 235 0.0 0.0 0.00 0.00 0.00 67 1015.3
20260507031539 66 235 0.0 0.0 0.00 0.00 0.00 66 1015.1
20260507030039 67 235 0.0 0.0 0.00 0.00 0.00 66 1015.0
20260507024541 67 360 0.0 0.0 0.00 0.00 0.00 66 1014.8
20260507023038 68 207 0.0 0.0 0.00 0.00 0.00 63 1014.6
20260507021538 69 242 0.0 0.0 0.00 0.00 0.00 62 1014.5
20260507020041 70 245 0.0 0.0 0.00 0.00 0.00 61 1014.4
20260507014545 71 72 0.0 0.0 0.00 0.00 0.00 59 1014.3
20260507013034 72 253 0.0 0.0 0.00 0.00 0.00 57 1014.3
20260507011539 73 276 0.0 0.0 0.00 0.00 0.00 55 1014.2
20260507010036 76 214 0.0 0.0 0.00 0.00 0.00 51 1014.0
20260507004537 78 233 0.0 0.0 0.00 0.00 0.00 48 1014.0
20260507003030 79 266 0.0 0.0 0.00 0.00 0.00 48 1014.0
20260507001530 79 194 0.0 0.0 0.00 0.00 0.00 47 1013.9
20260507000029 79 285 0.0 0.0 0.00 0.00 0.00 47 1013.9
20260506234527 79 257 0.0 0.0 0.00 0.00 0.00 48 1013.9
20260506233025 78 264 0.0 0.0 0.00 0.00 0.00 49 1014.0
20260506231524 78 86 0.0 0.9 0.00 0.00 0.00 48 1014.0
20260506230022 79 274 0.0 0.9 0.00 0.00 0.00 46 1014.2
20260506224521 79 30 0.0 0.0 0.00 0.00 0.00 45 1014.2
20260506223018 80 92 0.0 0.0 0.00 0.00 0.00 44 1014.4
20260506221516 80 60 0.0 0.0 0.00 0.00 0.00 45 1014.5
20260506220029 81 290 0.0 0.0 0.00 0.00 0.00 46 1014.7
20260506214511 80 241 0.0 0.0 0.00 0.00 0.00 47 1014.8
20260506213009 80 262 0.0 0.0 0.00 0.00 0.00 47 1015.0
20260506211508 80 134 0.0 0.0 0.00 0.00 0.00 47 1015.2
20260506210010 79 255 0.0 0.0 0.00 0.00 0.00 48 1015.3
20260506204503 80 252 0.0 0.0 0.00 0.00 0.00 47 1015.5
20260506203100 79 98 0.0 0.0 0.00 0.00 0.00 46 1015.6
20260506201600 79 269 0.0 0.0 0.00 0.00 0.00 47 1015.7
20260506200105 79 260 0.0 0.0 0.00 0.00 0.00 45 1016.1
20260506194604 79 264 0.0 0.0 0.00 0.00 0.00 46 1016.2
20260506193054 78 270 0.0 0.0 0.00 0.00 0.00 50 1016.4
20260506191554 77 214 0.0 0.0 0.00 0.00 0.00 48 1016.6
20260506190046 76 264 0.0 0.0 0.00 0.00 0.00 49 1016.8
20260506184548 76 212 0.0 0.0 0.00 0.00 0.00 48 1017.0
20260506183043 74 222 0.0 0.0 0.00 0.00 0.00 51 1017.1
20260506181549 75 108 0.0 0.0 0.00 0.00 0.00 50 1017.3
20260506180048 73 203 0.0 0.0 0.00 0.00 0.00 52 1017.2
20260506174534 72 222 0.0 0.0 0.00 0.00 0.00 54 1017.3
20260506173036 72 218 0.0 0.0 0.00 0.00 0.00 54 1017.3
20260506171530 71 87 0.0 0.0 0.00 0.00 0.00 54 1017.5
20260506170029 70 221 0.0 0.0 0.00 0.00 0.00 55 1017.3
20260506164528 69 109 0.0 0.0 0.00 0.00 0.00 56 1017.4
20260506163025 69 210 0.0 0.0 0.00 0.00 0.00 58 1017.4
20260506161522 68 106 0.0 0.0 0.00 0.00 0.00 63 1017.4
20260506160019 67 86 0.0 0.0 0.00 0.00 0.00 61 1017.5
20260506154515 65 193 0.0 0.0 0.00 0.00 0.00 68 1017.5
20260506153011 63 91 0.0 0.0 0.00 0.00 0.00 70 1017.7
20260506151507 61 107 0.0 0.0 0.00 0.00 0.00 76 1017.7
20260506150002 57 120 0.0 0.0 0.00 0.00 0.00 85 1017.6
20260506144608 56 100 0.0 0.0 0.00 0.00 0.00 85 1017.7
20260506143055 55 113 0.0 0.0 0.00 0.00 0.00 88 1017.5
20260506141554 54 106 0.0 0.0 0.00 0.00 0.00 91 1017.4
20260506140053 53 103 0.0 0.0 0.00 0.00 0.00 93 1017.4
20260506134554 52 103 0.0 0.0 0.00 0.00 0.00 94 1017.3
20260506133053 52 103 0.0 0.0 0.00 0.00 0.00 93 1017.2
20260506131546 52 103 0.0 0.0 0.00 0.00 0.00 93 1016.9
20260506130046 52 103 0.0 0.0 0.00 0.00 0.00 93 1016.8
20260506124543 51 101 0.0 0.0 0.00 0.01 0.00 93 1016.8
20260506123042 51 102 0.0 0.0 0.00 0.01 0.00 92 1016.6
20260506121540 52 101 0.0 0.0 0.00 0.01 0.00 93 1016.5
20260506120039 52 100 0.0 0.0 0.00 0.01 0.00 92 1016.4
20260506114537 52 102 0.0 0.0 0.00 0.03 0.00 93 1016.4
20260506113037 52 100 0.0 0.0 0.00 0.03 0.00 92 1016.3
20260506111535 52 100 0.0 0.0 0.00 0.03 0.00 91 1016.3
20260506110036 53 100 0.0 0.0 0.00 0.03 0.00 90 1016.2
20260506104535 53 100 0.0 0.0 0.00 0.09 0.00 90 1016.4
20260506103032 54 100 0.0 0.0 0.00 0.09 0.00 90 1016.3
20260506101531 54 100 0.0 0.0 0.00 0.09 0.00 90 1016.3
20260506100030 55 100 0.0 0.0 0.00 0.09 0.00 90 1016.3
20260506094529 55 101 0.0 0.0 0.00 0.10 0.00 92 1016.3
20260506093033 54 100 0.0 0.0 0.00 0.10 0.00 93 1016.4
20260506091527 53 100 0.0 0.0 0.00 0.10 0.00 93 1016.4
20260506090024 53 100 0.0 0.0 0.00 0.10 0.00 92 1016.5
20260506084533 53 100 0.0 0.0 0.00 0.10 0.00 91 1016.5
20260506083020 52 100 0.0 0.0 0.00 0.10 0.00 90 1016.7
20260506081518 53 100 0.0 0.0 0.00 0.10 0.00 89 1016.7